Location: Unspecified
(58.7730°N, 5.8460°E)
Time: 07:11:37
(UTC+01:00)

Resurs 1-4 Rocket - Visible Passes

Search period start: 22 February 2017 00:00
Search period end: 04 March 2017 00:00
Orbit: 801 x 813 km, 98.5° (Epoch: 21 February)

Date Brightness Start Highest point End Pass type
(mag) Time Alt. Az. Time Alt. Az. Time Alt. Az.
22 Feb 4.4 02:04:20 10° NE 02:06:40 19° ENE 02:06:40 19° ENE visible
22 Feb 2.7 03:43:42 10° NNE 03:47:45 53° NNE 03:47:45 53° NNE visible
22 Feb 3.3 05:24:07 10° N 05:28:21 24° NW 05:28:50 24° WNW visible
23 Feb 4.7 01:40:21 10° NE 01:41:55 14° ENE 01:41:55 14° ENE visible
23 Feb 3.0 03:19:08 10° NNE 03:23:01 47° NE 03:23:01 47° NE visible
23 Feb 3.0 04:59:21 10° N 05:04:03 32° NW 05:04:06 32° NW visible
23 Feb 4.1 06:40:42 10° NNW 06:42:29 12° NNW 06:44:15 10° NW visible
24 Feb 3.4 02:54:38 10° NNE 02:58:16 37° NE 02:58:16 37° NE visible
24 Feb 2.6 04:34:38 10° N 04:39:22 43° NW 04:39:22 43° NW visible
24 Feb 3.9 06:15:32 10° N 06:18:22 15° NW 06:20:27 12° WNW visible
25 Feb 3.8 02:30:13 10° NNE 02:33:32 28° ENE 02:33:32 28° ENE visible
25 Feb 2.4 04:09:58 10° NNE 04:14:37 56° NW 04:14:37 56° NW visible
25 Feb 3.6 05:50:37 10° N 05:54:12 19° NW 05:55:43 17° WNW visible
26 Feb 4.2 02:05:57 10° NE 02:08:48 21° ENE 02:08:48 21° ENE visible
26 Feb 2.3 03:45:21 10° NNE 03:49:53 64° N 03:49:53 64° N visible
26 Feb 3.3 05:25:47 10° N 05:29:57 24° NW 05:30:59 23° WNW visible
27 Feb 4.5 01:41:56 10° NE 01:44:03 15° ENE 01:44:03 15° ENE visible
27 Feb 2.6 03:20:46 10° NNE 03:25:09 57° NE 03:25:09 57° NE visible
27 Feb 3.0 05:01:01 10° N 05:05:40 31° NW 05:06:14 31° WNW visible
27 Feb 4.1 06:42:25 10° NNW 06:44:04 11° NNW 06:45:43 10° NW visible
28 Feb 4.8 01:18:41 10° ENE 01:19:19 11° ENE 01:19:19 11° ENE visible
28 Feb 3.1 02:56:15 10° NNE 03:00:24 43° ENE 03:00:24 43° ENE visible
28 Feb 2.6 04:36:17 10° N 04:41:17 42° WNW 04:41:30 42° WNW visible
28 Feb 4.0 06:17:13 10° N 06:19:58 14° NW 06:22:35 10° WNW visible
01 Mar 3.6 02:31:50 10° NNE 02:35:40 32° ENE 02:35:40 32° ENE visible
01 Mar 2.2 04:11:37 10° NNE 04:16:45 58° WNW 04:16:45 58° WNW visible
01 Mar 3.7 05:52:16 10° N 05:55:48 18° NW 05:57:51 15° WNW visible
02 Mar 4.0 02:07:33 10° NE 02:10:56 23° ENE 02:10:56 23° ENE visible
02 Mar 2.1 03:46:59 10° NNE 03:52:01 77° NNW 03:52:01 77° NNW visible
02 Mar 3.4 05:27:26 10° N 05:31:34 23° NW 05:33:07 20° WNW visible
03 Mar 4.4 01:43:30 10° NE 01:46:12 17° ENE 01:46:12 17° ENE visible
03 Mar 2.3 03:22:24 10° NNE 03:27:17 68° ENE 03:27:17 68° ENE visible
03 Mar 3.0 05:02:39 10° N 05:07:16 31° NW 05:08:23 28° WNW visible
03 Mar 4.1 06:44:08 10° NNW 06:45:41 11° NNW 06:47:12 10° NW visible
